Terminal Aerodrome Forecast
Issued by NWS Salt Lake City, UT

Home | Current Version | Previous Version | Text Only | Print | Product List | Glossary On
Versions: 1 2 3 4 5 6 7 8 9 10 11 12 13 14 15 16 17 18
000
FTUS45 KSLC 022335
TAFCDC
TAF
KCDC 022335Z 0300/0324 20007KT P6SM -SHRA VCTS SCT040CB OVC060
     FM030100 06004KT P6SM VCSH SCT050 BKN080
     FM030300 05005KT P6SM SCT060 SCT100
     FM031400 34006KT P6SM FEW100=

USA.gov is the U.S. government's official web portal to all federal, state and local government web resources and services.